SCP
0 0 0 0 0 0 0 0 0 0 0 0 0 0 0 0 0 0 0 0 0 0
0 0 0 0 0 0 0 0 0 0 0 0 0 0 0 0 0 0 0 0 0 0
0 0 0 0 0 0 0 0 0 0 0 0 0 0 0 0 0 0 0 0 0 0
0 0 0 0 0 0 0 0 0 0 0 0 0 0 0 0 0 0 0 0 0 0
0 0 0 0 0 0 0 0 0 0 0 0 0 0 0 0 0 0 0 0 0 0
0 0 0 0 0 0 0 0 0 0 0 0 0 0 0 0 0 0 0 0 0 0
0 0 0 0 0 0 0 0 0 0 0 0 0 0 0 0 0 0 0 0 0 0
0 0 0 0 0 0 0 0 0 0 0 0 0 0 0 0 0 0 0 0 0 0
0 0 0 0 0 0 0 0 0 0 0 0 0 0 0 0 0 0 0 0 0 0
0 0 0 0 0 0 0 0 0 0 0 0 0 0 0 0 0 0 0 0 0 0
0 0 0 0 0 0 0 0 0 0 0 0 0 0 0 0 0 0 0 0 0 0
0 0 0 0 0 0 0 0 0 0 0 0 0 0 0 0 0 0 0 0 0 0
0 0 0 0 0 0 0 0 0 0 0 0 0 0 0 0 0 0 0 0 0 0
0 0 0 0 0 0 0 0 0 0 0 0 0 0 0 0 0 0 0 0 0 0
Wind_Speed_500mb
25 19 13 11 16 22 29 34 37 39 40 40 39 39 40 42 41 42 44 45 47 47
31 27 24 21 19 17 17 20 25 31 37 42 44 44 46 48 47 48 48 48 49 51
25 24 22 21 21 20 19 19 19 20 26 34 38 42 46 49 50 51 52 53 53 53
23 22 21 20 20 20 21 21 20 19 19 19 24 32 38 44 47 50 52 54 56 57
25 24 23 23 24 23 22 22 22 22 21 20 20 21 24 31 39 44 48 52 54 57
30 29 29 29 28 27 26 25 24 24 25 23 23 22 21 23 26 32 38 44 46 51
32 32 33 32 32 32 31 30 29 27 26 27 26 25 27 28 28 29 30 32 37 42
38 38 37 36 36 35 34 33 32 32 31 30 28 27 33 35 35 35 35 34 34 35
45 44 43 43 41 40 39 38 37 37 37 38 35 35 35 37 39 36 37 36 36 36
45 46 48 47 44 45 44 41 40 41 42 43 44 47 45 43 43 39 34 35 36 38
45 45 46 46 45 43 40 40 40 37 37 37 36 42 44 44 39 34 33 33 36 36
42 43 42 43 40 38 38 37 34 35 36 33 33 37 35 33 31 32 35 34 34 35
40 38 37 36 36 35 32 31 31 32 30 30 27 25 27 32 33 32 30 33 30 32
31 32 29 30 27 27 27 25 25 25 25 25 30 34 38 38 35 36 37 38 40 38
Wind_Direction_500mb
58 49 27 345 309 291 283 277 271 266 258 253 253 257 259 260 259 258 258 257 257 258
48 44 36 25 11 358 334 313 294 279 270 264 259 255 253 256 260 260 259 260 259 259
35 33 27 21 17 9 357 343 333 318 290 277 271 263 257 257 257 258 261 261 260 262
19 15 11 6 3 357 351 346 346 338 326 315 293 277 269 264 261 259 259 261 262 261
360 357 356 355 352 348 343 339 332 331 328 326 318 307 290 276 269 266 264 263 261 263
351 347 345 343 340 337 335 333 329 325 320 319 319 314 308 301 290 281 273 268 265 266
338 337 335 332 328 325 325 325 325 324 322 319 318 316 307 302 299 294 290 284 278 273
322 319 316 314 314 314 314 315 314 315 314 314 316 316 312 306 302 299 296 294 290 284
319 319 316 313 311 307 304 305 304 304 305 305 308 306 307 307 303 302 300 299 296 293
316 314 314 314 312 309 310 307 306 303 301 299 297 295 297 298 298 301 300 302 301 299
317 317 315 313 313 313 312 311 311 312 312 310 309 303 301 294 297 298 297 299 299 299
318 317 318 317 319 316 316 316 316 316 317 319 320 320 322 322 318 306 302 300 303 302
320 320 318 317 314 319 319 318 319 322 326 328 332 318 324 332 322 312 297 280 293 294
329 328 325 328 329 329 330 332 335 333 335 331 328 319 310 316 324 312 316 310 305 302
Wind_Speed_850mb
25 19 13 11 16 22 29 34 37 39 40 40 39 39 40 42 41 42 44 45 47 47
31 27 24 21 19 17 17 20 25 31 37 42 44 44 46 48 47 48 48 48 49 51
25 24 22 21 21 20 19 19 19 20 26 34 38 42 46 49 50 51 52 53 53 53
23 22 21 20 20 20 21 21 20 19 19 19 24 32 38 44 47 50 52 54 56 57
25 24 23 23 24 23 22 22 22 22 21 20 20 21 24 31 39 44 48 52 54 57
30 29 29 29 28 27 26 25 24 24 25 23 23 22 21 23 26 32 38 44 46 51
32 32 33 32 32 32 31 30 29 27 26 27 26 25 27 28 28 29 30 32 37 42
38 38 37 36 36 35 34 33 32 32 31 30 28 27 33 35 35 35 35 34 34 35
45 44 43 43 41 40 39 38 37 37 37 38 35 35 35 37 39 36 37 36 36 36
45 46 48 47 44 45 44 41 40 41 42 43 44 47 45 43 43 39 34 35 36 38
45 45 46 46 45 43 40 40 40 37 37 37 36 42 44 44 39 34 33 33 36 36
42 43 42 43 40 38 38 37 34 35 36 33 33 37 35 33 31 32 35 34 34 35
40 38 37 36 36 35 32 31 31 32 30 30 27 25 27 32 33 32 30 33 30 32
31 32 29 30 27 27 27 25 25 25 25 25 30 34 38 38 35 36 37 38 40 38
Wind_Direction_850mb
58 49 27 345 309 291 283 277 271 266 258 253 253 257 259 260 259 258 258 257 257 258
48 44 36 25 11 358 334 313 294 279 270 264 259 255 253 256 260 260 259 260 259 259
35 33 27 21 17 9 357 343 333 318 290 277 271 263 257 257 257 258 261 261 260 262
19 15 11 6 3 357 351 346 346 338 326 315 293 277 269 264 261 259 259 261 262 261
360 357 356 355 352 348 343 339 332 331 328 326 318 307 290 276 269 266 264 263 261 263
351 347 345 343 340 337 335 333 329 325 320 319 319 314 308 301 290 281 273 268 265 266
338 337 335 332 328 325 325 325 325 324 322 319 318 316 307 302 299 294 290 284 278 273
322 319 316 314 314 314 314 315 314 315 314 314 316 316 312 306 302 299 296 294 290 284
319 319 316 313 311 307 304 305 304 304 305 305 308 306 307 307 303 302 300 299 296 293
316 314 314 314 312 309 310 307 306 303 301 299 297 295 297 298 298 301 300 302 301 299
317 317 315 313 313 313 312 311 311 312 312 310 309 303 301 294 297 298 297 299 299 299
318 317 318 317 319 316 316 316 316 316 317 319 320 320 322 322 318 306 302 300 303 302
320 320 318 317 314 319 319 318 319 322 326 328 332 318 324 332 322 312 297 280 293 294
329 328 325 328 329 329 330 332 335 333 335 331 328 319 310 316 324 312 316 310 305 302